Location: Huesca
(42.1318°N, 0.4078°W)
Time: 01:12:57
(UTC+02:00)

UNISAT 6 - Visible Passes

Search period start: 19 April 2024 00:00
Search period end: 29 April 2024 00:00
Orbit: 593 x 670 km, 97.7° (Epoch: 18 April)

Date Brightness Start Highest point End Pass type
(mag) Time Alt. Az. Time Alt. Az. Time Alt. Az.
19 Apr ? 04:39:36 10° E 04:41:47 14° ENE 04:43:56 10° NNE visible
19 Apr ? 06:13:15 10° S 06:17:39 62° W 06:22:00 10° NNW visible
20 Apr ? 04:59:05 10° ESE 05:02:25 21° ENE 05:05:43 10° NNE visible
20 Apr ? 06:34:28 10° SSW 06:38:34 36° W 06:42:37 10° NNW visible
21 Apr ? 05:19:09 10° SE 05:23:07 34° ENE 05:27:02 10° N visible
22 Apr ? 05:39:32 10° SSE 05:43:51 56° ENE 05:48:06 10° N visible
23 Apr ? 06:00:13 10° SSE 06:04:38 85° W 06:08:58 10° NNW visible
24 Apr ? 04:46:48 10° ESE 04:49:28 16° ENE 04:52:06 10° NNE visible
24 Apr ? 06:21:11 10° S 06:25:27 50° W 06:29:39 10° NNW visible
25 Apr ? 05:06:29 10° ESE 05:10:03 25° ENE 05:13:35 10° NNE visible
26 Apr ? 05:26:37 10° SE 05:30:41 40° ENE 05:34:43 10° N visible
27 Apr ? 05:47:02 10° SSE 05:51:21 69° ENE 05:55:37 10° N visible
28 Apr ? 04:34:43 10° E 04:36:15 12° ENE 04:37:47 10° NE visible
28 Apr ? 06:07:44 10° S 06:12:03 70° WSW 06:16:20 10° NNW visible
